Location: Borotín
(49.5055°N, 14.6142°E)
Time: 11:21:12
(UTC+00:00)

ADEOS II - Pass Details

Date: 27 May 2022
Orbit: 798 x 801 km, 98.6° (Epoch: 26 June)

Event Time Altitude Azimuth Distance (km) Brightness Sun altitude
Rises 01:09:32 0° 16° (NNE) 3,319 6.9 -13.5°
Reaches altitude 10° 01:11:54 10° 18° (NNE) 2,384 5.9 -13.3°
Maximum altitude 01:17:10 74° 104° (ESE) 836 2.2 -12.8°
Enters shadow 01:21:42 14° 188° (S) 2,097 3.7 -12.4°
